Weather in Velikent

Russia / Republic of Dagestan     42°11′13″N   48°04′00″E
temp.,
°C
wind,
m/s
gust,
m/s
humid.,
%
clouds,
%
prec.,
mm/h
press.,
hPa
HPBL,
m
9 december, thu
thu900:00+8nnw36850 0.0 1006125
03:00+8sw12752 0.0 100729
06:00+8nnw1171100 0.0 100834
09:00+8ese1175100 0.1 101191
12:00+10ssw2368100 0.0 1012182
15:00+10ssw2380100 1.5 101583
18:00+9ne1186100 0.2 101736
21:00+9sw2284100 0.2 101930
10 december, fri
fri1000:00+9sw118269 0.0 102012
03:00+9sw117875 0.0 102111
06:00+9nnw22755 0.0 102212
09:00+10ene018137 0.0 102583
12:00+11e117499 0.0 1024576
15:00+11ene1279100 0.0 1025188
18:00+10ese1285100 0.0 1026207
21:00+9se228954 0.0 1026138
11 december, sat
sat1100:00+8sse019241 0.0 102545
03:00+7ssw119126 0.0 102525
06:00+7sw118725 0.0 102424
09:00+9ssw117238 0.0 102497
12:00+11ene216638 0.0 1023644
15:00+11nne226989 0.0 1024586
18:00+9nnw348996 0.1 1026262
21:00+8n349199 0.1 1027344
12 december, sun
sun1200:00+7n2288100 0.1 1027343
03:00+7n228797 0.1 1028307
06:00+7n2289100 0.0 1028313
09:00+7n228498 0.0 1030354
12:00+7nne328098 0.0 1029533
15:00+7nne2276100 0.0 1029632
18:00+6nne228092 0.0 1031403
21:00+6ene118294 0.0 1031370
13 december, mon
mon1300:00+6e128184 0.0 1030344
03:00+6ese238194 0.0 1030310
06:00+6se248380 0.0 1029257
09:00+7sse367843 0.0 1029570
12:00+9se576891 0.0 10281007
15:00+8se677168 0.0 1027801
18:00+7se478184 0.0 1027542
21:00+7se4882100 0.1 1026878